Powrót do katalogu

NOAA 16 DEB

AktywnyPO
NORAD 42374·DEBRIS·🇺🇸 United States

Wystrzelony Sep 21, 2000 z Vandenberg Space Force Base

Loading…

Następne Przeloty (najbliższe 24 godziny)

TLE

ŚwieżeSource: Space-Track

Epoka: Sep 13, 2026, 21:48 UTC

1 42374U 00055RS  26256.90894720  .00035793  00000-0  39242-2 0  9999
2 42374  98.8346  58.9652 0006449 116.1764 244.0113 14.87607399541935

Śledź NOAA 16 DEB w czasie rzeczywistym z AllMySat

Download on the App Store